Terug naar catalogus

STARLINK-5829

ActiefCommunicatieSSO
NORAD 56347·PAYLOAD·🇺🇸 United States

Gelanceerd Apr 27, 2023 vanaf Vandenberg Space Force Base

Loading…

Volgende Passages (komende 24 uur)

TLE

VersSource: CelesTrak SupGP

Epoch: Sep 14, 2026, 21:23 UTC

1 56347C 23058AG  26257.89145833  .00050078  00000+0  15545-2 0  2574
2 56347  97.2850 254.7817 0001693  89.8677 109.3861 15.33414592    12

Volg STARLINK-5829 in realtime met AllMySat

Download on the App Store